{"data":{"norad_id":65042,"epoch":"2026-05-25T04:00:03.998880Z","epoch_age_seconds":64084,"freshness":"FRESH","line1":"1 65042U 25161AD  26145.16671295  .00002947  00000+0  10088-3 0  9998","line2":"2 65042  53.1593 298.7311 0001827  91.0752 215.8451 15.33555491  5808","mean_motion":15.33555491,"eccentricity":0.0001827,"inclination_deg":53.1593,"raan_deg":298.7311,"arg_perigee_deg":91.0752,"mean_anomaly_deg":215.8451,"bstar":0.00010088,"rev_number":580,"period_min":93.899438817242,"perigee_km":463.96417042728,"apogee_km":466.46473104738,"semimajor_km":6843.3514507373,"source":"CELESTRAK","updated_at":"2026-05-25T13:38:20.674945Z"}}